Flag for U.S.A. Weather past 2 weeks in Moreno Valley, California, U.S.A.

Now
63 °F

Clear.


Feels Like: 63 °F
Forecast: 40 / 75 °F
Wind: 3 mph from Southeast

Location: Riverside / March Air Force Base

Current Time: Mar 5, 2015 at 6:29:35 PM

Latest Report: Mar 5, 2015 at 5:58 PM


Visibility: 10 mi

Pressure: 30.17 "Hg

Humidity: 22%

Dew point: 23 °F

Location of Moreno ValleyLocation

Historic Weather in Moreno Valley — Graph

°F

Moreno Valley temperature yesterday

Maximum temperature yesterday: 67 °F (at 1:58 PM)
Minimum temperature yesterday: 35 °F (at 4:58 AM)
Average temperature yesterday: 50 °F

Past Weeks' High & Low Weather Summary

 TemperatureHumidityPressure
High77 °F (Feb 19, 1:58 PM)100% (Feb 19, 5:58 AM)30.28 "Hg (Feb 19, 5:58 AM)
Low32 °F (Mar 3, 3:58 AM)15% (Mar 5, 12:58 PM)29.74 "Hg (Feb 27, 7:58 PM)
Average52 °F74%29.97 "Hg
* Reported Feb 18 4:58 PM — Mar 5 4:58 PM, Moreno Valley, Weather by CustomWeather, © 2015

Note: Actual official high and low records may vary slightly from our data, if they occured in-between our weather recording intervals... More about our weather records

Advertising

Moreno Valley weather history for previous 24 hours

 ConditionsComfort  
Time TempWeatherWind HumidityBarometerVisibility
4:58 PM
Thu, Mar 5
70 °FSunny.7 mph16%30.17 "Hg10 mi
3:58 PM71 °FSunny.9 mph15%30.17 "Hg10 mi
2:58 PM71 °FSunny.8 mph15%30.19 "Hg10 mi
1:58 PM72 °FSunny.8 mph15%30.20 "Hg9 mi
12:58 PM71 °FSunny.10 mph15%30.20 "Hg10 mi
11:58 AM70 °FSunny.13 mph16%30.24 "Hg10 mi
10:58 AM68 °FSunny.12 mph17%30.26 "Hg10 mi
9:58 AM65 °FSunny.8 mph18%30.28 "Hg10 mi
8:58 AM63 °FSunny.14 mph19%30.28 "Hg10 mi
7:58 AM53 °FSunny.8 mph37%30.27 "Hg10 mi
6:58 AM43 °FSunny.2 mph46%30.25 "Hg7 mi
5:58 AM50 °FClear.8 mph28%30.22 "Hg10 mi
4:58 AM39 °FClear.2 mph57%30.20 "Hg9 mi
3:58 AM43 °FClear.5 mph52%30.19 "Hg10 mi
2:58 AM34 °FClear.3 mph73%30.17 "Hg10 mi
1:58 AM38 °FClear.2 mph60%30.17 "Hg10 mi
12:58 AM44 °FClear.7 mph39%30.17 "Hg10 mi
11:58 PM
Wed, Mar 4
40 °FClear.3 mph57%30.16 "Hg10 mi
10:58 PM47 °FClear.No wind44%30.16 "Hg10 mi
9:58 PM42 °FClear.3 mph53%30.16 "Hg10 mi
8:58 PM43 °FClear.2 mph56%30.15 "Hg10 mi
7:58 PM47 °FClear.5 mph43%30.13 "Hg10 mi
6:58 PM55 °FClear.7 mph24%30.12 "Hg10 mi
Weather by CustomWeather, © 2015

See weather overviewHow to use our weather pages